Temperature
23 20 20 20 21 21 21 21 21 21 22 21 20 20 20 20 20 20 20 20 20 20 20 20 20 20 20 19 19 19 18 18 18 17 17 17 17 17 16 16 16 16 16 16
20 20 21 22 22 22 22 21 21 21 22 22 20 20 20 20 20 20 20 20 20 20 20 20 20 20 20 19 19 19 18 18 18 18 17 17 17 16 16 16 16 16 16 16
20 21 22 22 22 22 21 21 21 21 21 21 21 20 19 20 20 20 21 21 21 20 20 20 20 20 19 19 19 19 18 18 18 18 17 17 17 16 16 16 16 16 15 15
20 21 22 22 22 22 21 22 22 22 20 19 20 18 19 19 19 19 20 20 20 20 20 20 20 19 19 19 19 19 18 18 18 18 17 17 17 16 16 16 16 16 15 15
20 21 21 21 22 22 22 22 22 21 20 19 19 18 18 18 18 19 19 20 20 20 20 20 20 20 19 19 19 19 18 18 18 18 17 17 17 16 16 16 16 15 15 15
20 21 22 22 22 22 22 21 20 18 18 18 19 18 18 17 18 19 19 19 20 20 20 20 19 19 19 19 19 19 18 18 18 17 17 17 17 16 16 16 16 15 15 15
20 21 21 22 22 21 20 18 17 18 17 17 18 18 18 18 19 19 19 19 20 20 19 19 19 19 19 19 19 18 18 18 18 17 17 16 16 16 16 16 15 15 15 15
18 18 20 21 21 20 20 18 17 17 17 17 18 18 18 19 20 20 20 19 19 19 19 19 19 19 19 19 19 18 18 18 17 17 17 16 16 16 16 16 15 15 15 15
18 18 21 21 21 21 20 18 18 17 17 17 17 18 19 19 19 19 19 19 19 19 19 19 19 19 19 18 18 18 18 17 17 17 16 16 16 16 16 16 15 15 15 15
18 18 20 21 21 21 20 19 16 17 17 17 17 18 17 19 18 18 18 18 18 19 19 19 19 19 18 18 18 18 17 17 17 17 16 16 16 15 15 15 15 15 15 14
18 18 18 20 20 20 20 19 17 15 16 16 16 17 18 18 18 18 17 18 18 18 19 18 18 18 18 18 18 17 17 17 16 16 16 16 15 15 15 15 15 15 15 14
17 15 16 18 19 20 19 19 17 16 16 15 15 16 18 18 18 18 18 18 18 19 18 18 18 18 18 17 17 17 17 16 16 16 16 16 15 15 15 15 15 14 14 14
17 15 16 17 18 18 19 19 18 16 15 15 15 16 18 17 17 18 18 18 18 18 18 18 18 18 17 17 17 16 16 16 16 16 15 15 15 15 14 14 14 14 14 14
17 15 15 16 17 17 18 18 18 16 15 15 16 17 17 17 17 17 17 17 17 17 17 17 17 17 17 17 16 16 16 16 16 15 15 15 15 14 14 14 14 14 13 13
15 15 16 16 17 18 18 18 18 17 16 16 16 17 17 16 16 17 17 17 17 17 17 17 17 17 16 16 16 16 15 15 15 15 15 14 14 14 14 14 13 13 13 13
14 15 16 16 17 17 17 18 17 17 17 16 17 17 16 17 17 17 17 16 16 16 16 16 16 16 16 16 15 15 15 15 14 14 14 14 14 14 13 13 13 13 12 12
13 14 15 14 16 16 16 17 17 17 17 17 16 16 16 15 15 16 16 16 16 16 16 16 16 16 16 15 15 15 15 14 14 14 14 13 13 13 13 13 13 12 12 12
13 13 13 13 15 15 16 17 17 17 17 17 16 16 15 16 16 17 17 16 16 16 16 16 16 16 16 15 15 15 14 14 14 13 13 13 13 13 13 12 12 12 12 12
13 13 12 12 14 15 16 17 17 17 16 16 15 15 15 15 15 15 16 16 16 16 16 16 16 16 15 15 14 14 14 14 13 13 13 13 12 12 12 12 12 12 11 11
13 12 12 12 14 14 15 16 17 16 15 15 15 14 14 14 13 13 15 16 16 16 16 16 15 15 15 14 14 14 14 13 13 13 13 12 12 12 12 11 11 11 11 11
13 12 12 12 13 13 14 16 16 15 14 15 15 15 14 13 14 15 15 15 15 15 15 15 15 15 14 14 14 13 13 13 13 12 12 12 12 11 11 11 11 11 10 10
13 12 12 11 12 13 15 15 14 14 15 15 15 15 15 15 15 15 15 15 15 14 15 15 14 14 14 14 13 13 13 13 12 12 12 11 11 11 10 10 10 10 10 10
12 12 11 12 13 14 15 15 16 16 15 15 15 15 15 14 14 14 14 14 14 14 14 14 14 14 13 13 13 13 12 12 12 11 11 11 11 10 10 10 10 9 9 9
11 12 11 11 12 13 15 15 15 15 15 15 15 15 14 14 14 14 13 13 13 13 13 13 13 13 13 12 12 12 12 11 11 11 11 10 10 10 9 9 9 9 9 8
11 11 11 11 12 13 14 15 15 15 15 15 14 14 14 14 13 13 13 13 13 13 13 13 13 12 12 12 11 11 11 11 11 10 10 10 10 9 9 9 9 8 8 8
10 11 11 11 12 12 13 14 14 14 14 14 14 14 14 14 13 13 13 12 12 12 12 12 12 12 12 11 11 11 10 10 10 10 10 9 9 9 8 8 8 8 8 8
Wind_Speed
1 2 4 7 7 6 4 4 4 5 4 5 6 6 6 7 6 6 7 7 7 8 7 6 7 8 8 7 7 6 6 5 5 4 3 3 2 1 1 2 4 5 6 6
3 4 9 7 5 4 4 3 3 2 2 3 4 5 6 7 9 9 10 9 10 7 5 5 6 7 7 7 7 7 6 6 5 4 3 3 3 1 1 1 3 4 5 5
6 7 5 4 5 4 4 5 5 3 2 1 2 3 3 4 4 5 7 9 10 11 10 8 8 7 7 7 8 8 7 6 5 5 3 3 3 3 2 2 1 1 3 4
4 6 4 4 4 5 5 5 5 3 1 3 3 2 5 5 5 6 6 7 8 9 9 9 9 8 8 8 7 8 7 6 5 6 6 6 4 2 2 1 1 1 2 3
4 3 2 4 5 4 5 4 3 2 2 2 1 3 6 3 6 8 7 7 8 9 10 10 10 9 8 8 7 7 6 5 5 5 6 6 4 2 1 1 1 1 1 1
5 4 3 4 4 2 2 2 4 4 3 3 6 5 5 5 8 8 7 8 9 9 9 8 7 7 6 6 6 7 7 5 5 5 6 6 6 4 3 2 1 0 0 0
5 5 3 2 2 3 4 5 3 3 2 5 3 4 6 6 7 9 10 9 8 8 9 8 8 7 7 6 6 6 7 6 5 5 5 5 6 5 5 3 3 2 1 0
2 5 4 3 4 4 3 7 6 4 4 4 2 4 5 4 4 6 7 8 8 8 8 9 9 8 8 7 7 7 6 5 5 5 5 4 5 4 3 3 3 3 2 2
4 5 5 4 3 6 3 3 7 5 2 2 3 3 3 2 2 5 6 7 8 8 8 8 8 7 8 7 7 7 7 5 5 5 4 3 4 4 3 3 3 2 2 1
5 4 5 3 1 1 5 6 5 3 2 3 4 3 4 5 5 5 6 7 6 6 6 7 7 7 6 6 6 6 7 6 4 4 4 3 3 3 3 3 3 2 2 1
3 3 4 1 3 4 1 3 4 4 4 4 3 5 5 8 8 8 8 8 8 7 7 7 6 6 6 5 5 5 4 4 4 3 3 3 2 2 2 2 2 2 1 1
2 4 2 5 5 4 5 5 6 5 3 5 4 6 5 5 6 7 7 6 6 6 6 6 6 6 6 5 4 5 4 4 4 4 4 4 3 3 2 2 1 1 1 1
3 4 1 5 5 3 1 2 4 5 4 4 5 6 3 1 3 4 7 6 5 5 5 5 5 5 5 5 5 4 5 4 4 4 4 4 3 3 2 1 1 1 1 0
4 3 5 7 6 3 4 4 3 5 4 5 7 7 4 2 3 3 5 7 6 6 6 6 5 4 4 5 5 5 4 4 4 4 4 3 2 2 2 1 2 2 1 1
4 3 5 6 6 5 5 7 6 6 8 8 8 8 8 8 7 7 6 6 6 5 5 6 5 4 4 4 4 4 3 3 4 5 5 3 2 2 2 2 1 1 1 1
2 3 2 4 4 3 5 7 7 7 6 7 6 7 6 4 4 5 6 7 7 6 6 5 5 5 5 5 5 4 4 4 5 5 4 3 2 2 2 1 1 2 1 1
1 3 2 4 5 4 6 7 7 5 5 7 9 9 4 3 6 8 8 7 8 7 6 6 6 6 6 6 6 6 5 4 5 5 3 3 2 2 1 1 1 1 1 1
5 3 3 2 1 6 7 4 5 5 4 3 3 3 5 6 6 6 7 8 8 7 7 6 6 5 5 5 5 5 5 5 5 4 3 2 2 1 1 1 1 0 0 1
8 6 4 3 4 6 7 4 2 3 3 2 2 2 2 2 3 1 3 5 7 7 7 6 6 6 6 6 6 6 5 5 4 3 2 2 2 2 1 1 0 0 0 0
4 5 4 4 4 6 6 5 2 2 3 3 1 2 2 4 2 4 4 3 4 5 5 6 5 6 6 5 6 7 5 4 4 3 2 2 2 2 1 1 1 0 0 0
1 2 4 5 5 7 6 4 2 3 6 3 2 3 4 4 5 4 3 3 4 5 5 6 6 6 6 6 7 6 5 4 3 3 2 2 1 2 2 1 0 0 1 1
5 4 4 5 5 7 4 2 3 5 2 1 1 2 3 1 1 2 3 4 5 5 5 6 6 5 4 5 7 6 4 3 3 3 3 2 1 1 2 1 0 1 1 1
4 5 5 6 6 4 2 3 3 3 2 1 1 1 2 2 1 2 3 5 5 5 5 5 6 5 4 4 6 6 3 3 4 4 3 2 1 1 1 1 1 0 0 0
4 1 2 2 4 4 2 1 1 1 2 2 2 2 3 3 3 3 3 4 4 3 4 5 7 6 4 3 3 4 4 4 5 4 2 1 1 0 1 1 1 0 1 0
5 2 1 4 5 4 4 3 3 2 1 1 1 2 4 5 4 4 4 3 4 3 3 5 6 6 4 4 3 2 3 4 4 3 2 1 1 1 0 0 1 1 2 2
5 6 6 8 7 5 7 6 3 3 3 3 3 2 2 5 6 5 5 4 4 3 3 4 5 5 4 4 3 2 3 5 5 3 2 1 1 1 0 0 2 3 2 2
Wind_Direction
346 92 226 231 214 211 204 207 234 237 211 164 191 214 212 197 182 177 181 190 190 192 193 169 156 149 143 139 140 141 137 138 132 123 121 111 104 93 79 91 101 110 115 122
27 252 240 235 235 225 226 228 254 283 212 171 196 227 222 199 195 188 183 186 189 186 175 165 151 147 148 151 148 145 147 147 148 151 154 148 143 136 116 83 83 101 116 128
205 244 252 240 236 223 235 210 212 220 319 349 136 318 268 239 207 196 187 184 181 177 175 169 159 154 151 154 158 158 155 148 148 140 116 95 70 54 47 52 54 68 118 125
239 255 261 258 242 202 239 227 200 196 144 263 174 238 270 232 211 208 195 180 180 175 172 170 162 158 161 166 160 156 153 148 148 140 135 135 132 143 190 183 161 93 115 126
267 268 252 244 244 217 223 222 209 210 187 269 245 178 272 226 212 220 207 187 177 174 171 172 170 168 167 164 158 154 149 149 147 142 143 140 136 156 158 120 104 74 59 108
249 257 224 232 250 224 200 52 25 47 81 271 236 184 257 221 209 207 202 188 174 168 168 169 169 158 159 156 152 148 145 149 152 143 145 148 151 154 141 133 146 147 30 8
303 290 268 233 308 346 79 87 31 352 357 252 234 171 243 235 203 190 185 184 178 167 166 167 161 159 159 153 154 153 147 152 153 146 148 154 159 159 160 164 172 165 171 204
239 286 268 215 191 201 185 146 163 199 223 276 304 203 246 247 201 172 162 162 162 166 169 171 171 168 163 160 157 152 151 154 158 158 166 163 159 161 169 165 159 176 191 202
192 256 282 242 203 156 154 181 176 153 211 262 277 271 307 10 112 143 150 153 167 179 177 170 166 165 164 163 162 160 157 155 161 164 159 162 171 167 167 163 153 168 189 196
170 236 275 271 58 214 163 159 100 126 181 248 274 247 232 220 189 168 164 168 174 174 176 168 167 163 165 165 160 157 161 166 165 157 157 164 172 167 160 149 158 171 194 184
132 180 288 317 187 211 158 145 125 140 160 167 245 267 232 204 191 179 179 175 173 172 170 168 165 160 153 149 148 147 152 151 150 153 149 146 155 148 142 158 180 187 187 165
134 128 246 260 255 213 181 180 152 164 212 175 189 263 287 201 184 169 168 167 163 164 162 157 154 151 147 146 152 154 154 150 155 149 137 130 126 120 118 133 181 189 181 181
126 112 46 335 333 342 211 201 166 151 144 171 187 254 309 100 149 163 157 154 150 143 141 142 138 146 154 156 158 157 154 155 150 135 124 117 118 118 118 132 133 133 138 78
124 134 176 204 226 241 257 262 207 149 178 212 217 231 266 254 189 178 165 159 151 145 148 150 149 150 154 155 157 154 154 153 140 127 121 118 124 131 133 117 114 113 112 99
103 169 210 235 247 236 242 252 236 209 202 203 228 223 232 223 210 196 184 166 153 148 148 157 156 157 155 150 145 144 147 144 132 124 123 131 136 116 101 82 82 101 106 104
72 176 230 280 272 262 262 254 238 232 220 216 219 242 239 217 188 177 179 171 167 172 168 169 160 154 157 156 151 143 139 137 128 125 129 129 116 97 85 80 78 81 74 51
161 148 154 258 293 318 269 240 222 219 220 202 221 235 211 191 191 187 185 180 178 180 171 168 167 164 163 161 154 150 150 133 124 127 131 126 119 106 83 64 69 86 72 58
172 153 160 211 256 239 249 256 210 205 246 232 212 210 189 197 205 196 184 179 179 178 173 172 167 158 154 148 140 137 133 131 131 129 130 126 123 121 81 66 62 22 92 105
178 162 160 169 219 264 286 279 203 186 262 305 210 203 190 141 87 319 218 183 180 179 177 172 167 157 146 142 141 132 125 123 121 127 139 148 146 135 108 94 62 338 74 29
147 146 152 165 196 233 251 281 296 125 255 302 162 165 147 105 140 243 230 186 169 164 159 153 146 134 135 139 134 129 128 129 142 157 157 146 144 141 147 166 177 302 247 267
126 155 182 196 219 253 264 287 60 178 240 264 204 169 161 182 210 218 187 168 157 151 148 140 136 137 145 142 133 132 135 157 173 157 132 106 113 133 142 147 149 84 40 27
191 189 199 177 205 252 270 98 160 219 236 215 208 185 169 190 145 147 155 150 142 136 136 135 132 134 135 137 135 136 157 171 141 128 120 116 106 110 103 110 77 76 89 50
203 199 199 195 211 239 231 188 206 169 156 204 193 204 150 121 135 150 143 141 141 143 145 139 135 127 124 136 141 147 166 143 129 121 122 123 108 96 115 128 132 57 81 122
279 263 164 247 261 254 256 235 216 196 182 201 179 156 144 152 151 145 147 142 134 129 141 138 132 132 138 141 142 155 154 141 132 133 142 137 125 82 37 73 120 175 227 241
241 250 229 257 268 287 276 244 223 221 157 142 159 169 167 153 156 162 160 165 163 151 153 145 142 145 152 146 139 145 144 137 136 140 145 148 161 173 175 331 247 232 239 222
218 204 208 237 235 223 247 246 227 201 209 191 166 159 172 164 165 167 169 171 167 163 157 150 148 151 154 147 153 159 153 147 143 143 155 170 179 172 159 357 347 334 324 320
Height
1499 1504 1508 1505 1503 1504 1506 1509 1512 1507 1501 1504 1508 1509 1506 1506 1506 1507 1509 1510 1512 1513 1515 1516 1517 1519 1520 1522 1523 1524 1525 1526 1527 1527 1528 1528 1528 1528 1528 1527 1527 1527 1527 1527
1505 1506 1499 1497 1498 1500 1504 1509 1510 1505 1499 1502 1507 1507 1504 1503 1503 1504 1505 1507 1509 1511 1513 1515 1516 1518 1519 1520 1522 1523 1525 1525 1526 1527 1527 1527 1528 1528 1528 1527 1527 1527 1527 1527
1505 1501 1494 1496 1499 1502 1504 1507 1507 1506 1502 1502 1506 1512 1507 1502 1502 1503 1504 1505 1506 1508 1510 1513 1514 1516 1518 1519 1520 1522 1523 1524 1525 1526 1527 1527 1527 1527 1527 1527 1527 1527 1527 1527
1500 1495 1495 1496 1498 1498 1506 1498 1499 1502 1510 1517 1511 1526 1511 1504 1503 1501 1502 1502 1504 1506 1508 1510 1512 1514 1516 1517 1519 1521 1522 1523 1524 1525 1525 1525 1526 1526 1526 1527 1527 1527 1527 1527
1501 1495 1495 1497 1495 1494 1497 1493 1496 1500 1508 1515 1514 1522 1516 1505 1505 1501 1499 1500 1501 1503 1506 1508 1510 1512 1514 1516 1518 1520 1521 1522 1523 1524 1524 1524 1525 1525 1526 1526 1526 1526 1526 1526
1496 1492 1492 1492 1490 1490 1491 1496 1501 1507 1514 1525 1514 1521 1518 1507 1500 1497 1497 1498 1499 1502 1504 1506 1508 1510 1512 1514 1516 1518 1519 1521 1522 1522 1523 1523 1524 1524 1525 1525 1525 1525 1525 1525
1500 1494 1490 1489 1492 1492 1495 1510 1525 1527 1532 1528 1510 1515 1512 1495 1490 1491 1493 1495 1497 1499 1501 1504 1506 1508 1510 1512 1514 1516 1517 1519 1520 1521 1521 1522 1523 1523 1523 1523 1523 1523 1523 1523
1510 1508 1492 1488 1492 1496 1497 1507 1526 1534 1534 1526 1511 1514 1503 1489 1487 1488 1490 1493 1495 1497 1499 1501 1503 1505 1507 1510 1512 1514 1515 1517 1518 1519 1520 1521 1521 1522 1522 1522 1522 1522 1522 1522
1508 1506 1489 1486 1486 1490 1498 1504 1505 1519 1520 1526 1519 1507 1496 1489 1488 1489 1490 1492 1494 1496 1498 1499 1501 1504 1506 1508 1510 1512 1513 1515 1516 1517 1518 1519 1519 1520 1520 1520 1520 1520 1520 1520
1497 1504 1492 1486 1486 1486 1490 1496 1509 1518 1527 1532 1521 1513 1508 1495 1492 1490 1491 1492 1493 1495 1497 1498 1500 1502 1504 1507 1508 1510 1512 1513 1514 1515 1516 1517 1518 1518 1518 1518 1518 1518 1518 1517
1494 1502 1498 1491 1492 1494 1493 1497 1504 1515 1519 1528 1529 1517 1492 1490 1488 1489 1489 1490 1492 1494 1495 1497 1499 1501 1503 1505 1507 1508 1510 1511 1512 1513 1514 1515 1515 1516 1516 1516 1516 1516 1515 1515
1493 1502 1506 1496 1487 1485 1488 1492 1501 1514 1517 1519 1524 1516 1486 1485 1485 1486 1488 1490 1491 1492 1494 1496 1497 1499 1501 1503 1505 1506 1507 1509 1510 1511 1512 1513 1513 1513 1513 1513 1513 1513 1513 1513
1492 1502 1511 1507 1500 1491 1490 1490 1494 1501 1511 1517 1521 1511 1486 1485 1486 1486 1487 1489 1490 1492 1493 1495 1496 1497 1499 1500 1502 1504 1505 1507 1508 1509 1509 1510 1511 1511 1511 1511 1510 1510 1510 1510
1488 1499 1507 1510 1504 1496 1494 1491 1490 1499 1510 1511 1507 1500 1490 1487 1486 1486 1487 1488 1489 1491 1491 1493 1494 1495 1497 1498 1500 1502 1503 1504 1505 1506 1507 1508 1508 1508 1508 1508 1508 1507 1507 1507
1488 1497 1496 1494 1491 1490 1490 1489 1488 1492 1496 1501 1496 1493 1488 1485 1484 1484 1485 1486 1488 1489 1490 1491 1492 1493 1495 1496 1498 1500 1501 1502 1503 1504 1505 1505 1506 1506 1506 1506 1505 1505 1504 1504
1490 1495 1494 1493 1488 1488 1488 1486 1485 1486 1486 1489 1488 1487 1480 1480 1481 1482 1483 1484 1486 1487 1488 1489 1490 1491 1493 1494 1496 1497 1499 1500 1501 1502 1502 1503 1503 1503 1503 1503 1502 1502 1501 1501
1493 1495 1499 1500 1492 1490 1493 1482 1481 1482 1479 1481 1485 1481 1478 1479 1479 1479 1481 1482 1483 1484 1485 1487 1488 1489 1491 1492 1494 1495 1496 1498 1499 1499 1500 1500 1500 1501 1500 1500 1500 1500 1499 1498
1492 1495 1501 1502 1498 1502 1486 1473 1473 1475 1475 1475 1474 1474 1475 1475 1475 1476 1477 1479 1480 1482 1483 1485 1486 1488 1489 1491 1492 1493 1495 1496 1496 1497 1497 1498 1498 1498 1498 1498 1498 1497 1497 1496
1484 1491 1499 1503 1502 1493 1481 1473 1472 1475 1477 1474 1474 1473 1473 1473 1474 1475 1476 1477 1477 1479 1481 1483 1484 1486 1487 1489 1490 1492 1493 1493 1494 1494 1495 1495 1495 1495 1496 1495 1495 1495 1494 1494
1481 1485 1495 1500 1499 1498 1482 1470 1468 1472 1479 1473 1472 1472 1473 1473 1478 1476 1474 1475 1476 1478 1480 1481 1483 1484 1486 1487 1489 1490 1490 1491 1491 1492 1493 1493 1493 1493 1493 1493 1493 1492 1492 1491
1486 1489 1493 1496 1496 1487 1475 1469 1469 1481 1479 1472 1471 1470 1471 1471 1472 1472 1472 1473 1474 1476 1478 1479 1481 1482 1484 1485 1487 1488 1488 1489 1490 1490 1491 1491 1491 1491 1491 1491 1491 1490 1490 1489
1485 1489 1490 1492 1494 1488 1470 1469 1474 1474 1470 1469 1469 1469 1469 1469 1468 1469 1470 1471 1472 1474 1476 1477 1478 1480 1482 1483 1485 1485 1486 1487 1488 1488 1489 1489 1489 1489 1489 1489 1488 1488 1487 1487
1480 1480 1480 1481 1480 1471 1468 1468 1468 1468 1468 1468 1467 1468 1467 1467 1467 1467 1468 1469 1470 1472 1473 1475 1476 1478 1480 1481 1483 1483 1484 1485 1486 1486 1486 1487 1487 1486 1486 1486 1486 1485 1485 1484
1476 1474 1475 1475 1470 1468 1467 1466 1466 1467 1466 1466 1466 1466 1466 1466 1466 1467 1467 1468 1468 1470 1471 1473 1474 1476 1478 1479 1480 1481 1482 1483 1483 1483 1484 1484 1484 1484 1484 1483 1483 1483 1482 1481
1474 1473 1473 1472 1468 1466 1464 1464 1465 1465 1465 1465 1465 1464 1464 1465 1465 1466 1466 1467 1468 1469 1471 1472 1473 1474 1476 1477 1478 1479 1480 1480 1481 1481 1481 1481 1481 1481 1481 1481 1480 1480 1479 1479
1469 1469 1471 1468 1464 1464 1462 1462 1462 1462 1462 1462 1462 1462 1463 1463 1464 1464 1465 1466 1467 1468 1469 1470 1471 1473 1474 1475 1476 1477 1477 1478 1478 1478 1478 1478 1478 1478 1478 1478 1477 1477 1477 1476